Wind_Speed
8 7 6 5 4 3 2 2 2 2 3 3 4 5 6 6 6 7 7 7 7 7 7 7 7 7 7 6 6 6 7 7 7 8 8 9 9 10 10 11 11 12 12
9 8 7 6 6 5 4 4 3 3 3 4 4 5 6 6 6 7 7 7 7 7 8 8 8 8 8 8 8 8 8 9 10 10 10 11 12 12 12 13 14 15 15
10 10 9 8 7 7 6 6 5 5 5 5 5 6 6 7 7 7 8 8 8 8 9 9 10 10 10 10 10 10 10 11 12 12 13 14 14 15 15 16 16 17 18
11 11 10 10 9 9 8 8 7 7 7 7 7 7 8 8 8 8 8 9 10 10 11 11 12 12 12 12 12 13 13 13 14 14 15 15 16 17 18 18 19 19 20
12 12 12 11 10 10 10 9 9 9 9 9 9 9 10 10 10 10 11 11 11 12 12 13 14 14 14 14 15 15 16 16 17 17 17 18 19 20 20 21 22 22 23
14 13 13 13 12 12 12 12 12 11 11 11 12 12 12 12 12 12 13 13 14 14 14 15 15 16 16 17 17 18 19 19 20 20 21 21 21 22 23 24 24 25 26
15 15 15 15 14 14 14 14 14 14 13 13 14 14 14 14 14 14 14 15 15 15 16 17 18 18 19 20 21 21 22 22 23 23 23 24 24 25 26 27 27 28 29
17 17 16 16 16 16 16 16 16 16 16 16 16 16 16 16 16 17 17 17 17 18 19 20 21 21 22 23 23 24 24 25 25 26 26 26 27 28 29 29 30 31 32
18 18 18 18 18 18 18 18 18 18 18 17 17 17 18 18 19 19 19 20 20 21 22 22 23 24 24 25 25 26 26 27 27 28 29 30 30 31 32 32 33 34 35
20 20 20 20 20 20 20 20 20 19 19 19 19 20 20 21 21 21 21 22 23 23 24 25 25 26 27 28 29 29 30 30 30 32 32 33 33 34 35 36 37 38 38
21 21 21 21 21 21 21 21 21 21 21 22 22 22 23 23 24 24 25 25 26 26 27 28 28 29 30 31 32 33 33 34 34 34 35 36 36 37 38 39 40 41 42
21 22 22 22 22 23 23 23 23 23 23 23 24 24 25 25 26 27 27 28 28 29 30 31 32 33 33 34 35 36 36 36 37 37 38 38 39 40 41 42 43 44 46
22 23 23 24 24 24 24 25 25 25 25 26 26 27 27 28 29 30 30 30 30 31 33 34 35 36 37 37 38 38 39 39 39 40 40 41 42 43 44 45 46 47 49
24 25 25 26 26 26 27 27 27 27 27 28 29 29 30 30 31 32 32 33 34 35 36 37 38 38 39 40 41 41 41 41 42 42 43 44 45 46 47 48 49 50 51
26 26 27 27 28 29 29 29 29 29 30 30 31 32 32 33 34 35 35 36 37 38 39 39 40 41 42 42 43 43 43 44 44 45 46 47 48 49 50 51 52 53 54
27 28 28 29 30 30 30 30 31 31 32 33 34 34 35 36 36 37 38 39 40 41 41 42 43 43 44 44 45 45 45 46 46 47 48 49 50 51 52 53 54 55 56
28 29 29 30 30 30 31 31 32 33 34 34 35 36 38 39 39 40 41 41 42 43 43 44 45 45 46 46 47 47 48 48 48 48 49 50 51 52 53 54 55 56 58
30 30 30 30 31 31 32 33 34 34 35 36 37 39 40 41 42 42 43 44 45 46 46 46 47 47 47 47 48 48 49 49 50 50 51 51 52 53 54 56 57 58 59
31 31 32 32 33 34 35 35 36 37 38 39 40 42 43 44 45 45 46 47 47 48 48 48 48 48 48 48 49 49 50 50 51 52 53 53 54 55 56 57 58 60 61
32 33 34 34 35 36 37 38 39 40 41 42 43 44 45 46 46 47 48 48 49 49 49 49 49 49 49 50 50 51 51 52 53 53 54 55 56 57 58 59 60 61 62
35 35 35 36 37 38 39 41 42 43 44 45 45 47 48 49 49 49 50 50 50 50 50 50 50 50 51 51 52 52 53 53 54 54 55 56 57 58 59 60 61 62 63
36 37 38 39 40 41 42 43 45 45 46 47 48 49 50 51 51 51 51 51 51 51 51 51 52 52 52 53 54 54 54 55 55 56 56 57 58 59 60 61 62 63 64
39 39 40 41 42 43 44 45 46 47 48 49 50 51 51 52 52 52 51 51 52 52 52 52 53 53 54 54 55 55 56 56 56 57 58 59 59 60 60 61 61 62 62
41 42 42 43 44 45 46 47 48 49 49 50 51 51 51 51 52 51 51 51 51 52 52 53 53 54 54 55 56 56 56 57 58 58 59 60 60 60 60 60 61 60 60
44 45 46 46 47 47 48 49 49 50 50 50 50 51 51 51 52 52 52 52 52 52 53 54 54 55 55 56 57 57 57 58 59 59 59 59 59 59 59 59 59 59 58
46 47 48 49 49 50 50 50 50 50 51 51 51 51 52 52 52 53 53 53 53 54 54 55 56 56 57 57 58 58 58 59 59 58 59 58 58 58 58 58 58 57 57
Wind_Direction
220 223 222 223 226 235 252 282 300 318 335 347 355 0 2 5 8 9 9 10 12 13 11 9 7 2 356 349 337 329 323 316 311 306 302 303 303 302 301 299 298 298 296
225 229 230 232 236 243 252 265 279 296 301 310 324 332 338 345 348 349 348 349 349 351 352 352 351 346 341 336 330 323 315 310 308 306 301 298 298 298 298 298 298 296 294
228 233 237 238 241 246 251 258 266 277 290 296 304 314 321 327 332 334 332 333 333 333 332 330 328 326 324 322 320 316 313 309 306 304 302 298 295 295 295 295 295 295 294
234 238 241 243 244 249 253 258 264 273 281 285 291 298 305 311 314 317 317 318 321 320 319 319 318 317 315 314 312 310 308 306 305 303 301 298 295 294 292 292 292 292 293
239 241 243 246 248 251 254 259 264 270 276 280 283 288 294 298 301 303 307 309 312 313 313 314 314 313 312 311 309 307 305 302 300 299 297 295 293 292 292 292 292 292 292
241 242 245 247 250 252 255 259 263 268 273 277 279 283 288 291 294 297 301 303 306 307 308 309 309 308 308 308 306 304 302 301 299 297 297 296 294 292 291 291 291 290 290
242 244 246 249 251 254 257 261 264 268 272 275 278 281 285 287 291 294 296 298 300 302 304 305 306 306 305 305 304 302 300 299 298 297 296 295 294 292 291 290 290 289 289
243 246 248 250 253 256 260 263 266 269 272 274 277 280 283 286 288 291 294 294 295 297 300 302 304 304 304 304 304 303 301 299 299 298 297 295 293 291 290 289 288 288 288
245 247 250 253 255 258 261 264 267 269 271 273 275 279 282 284 287 290 292 293 294 294 297 299 301 302 302 303 303 302 301 300 298 297 296 294 292 291 289 289 288 288 288
247 249 252 255 257 260 262 265 268 270 271 273 276 280 282 284 286 289 291 292 293 294 295 297 298 300 301 302 301 301 300 298 297 297 296 294 293 292 291 290 290 289 289
249 252 253 256 257 260 264 267 268 270 272 274 277 280 282 284 286 288 290 291 292 293 293 295 296 298 299 301 301 300 300 298 297 295 295 294 293 293 292 292 292 292 291
251 253 255 257 259 261 264 266 268 269 271 274 277 279 282 284 286 288 290 291 291 293 294 294 295 297 298 298 299 299 298 297 296 295 294 294 293 292 292 292 292 292 292
252 255 257 259 261 262 264 265 268 270 272 274 276 279 281 283 286 288 289 290 291 291 293 294 295 295 296 297 297 297 297 296 295 294 294 294 294 293 293 293 293 293 293
255 257 259 261 262 264 265 267 270 271 273 274 277 279 281 283 286 287 288 290 291 292 292 294 295 295 295 296 296 296 296 295 295 294 294 294 294 293 293 293 293 293 294
256 258 260 261 262 264 267 269 270 272 274 275 277 279 282 283 285 286 288 289 290 292 293 294 294 294 295 295 295 295 295 295 294 294 293 293 294 294 294 294 294 294 295
259 262 262 263 264 265 266 268 269 271 273 275 277 280 282 283 284 286 287 289 291 292 294 294 294 294 294 294 294 294 295 294 294 293 293 293 294 294 294 295 295 295 296
262 263 264 264 265 266 267 269 271 272 274 276 277 280 282 283 285 286 287 289 291 292 293 294 294 294 294 293 293 293 294 294 294 294 294 294 294 294 295 295 296 296 297
263 263 264 264 265 267 269 271 272 274 275 277 279 280 282 284 285 286 288 289 291 292 293 293 293 293 293 294 294 294 294 294 295 295 295 295 295 295 295 296 297 298 299
264 265 265 266 267 269 271 273 274 276 277 279 280 282 284 285 286 287 288 289 290 291 291 292 292 292 293 294 294 295 295 295 295 295 296 296 296 296 297 297 298 299 300
267 267 267 268 269 270 272 274 276 277 279 280 282 283 284 285 286 287 288 289 290 290 291 291 292 293 293 294 294 295 296 296 296 296 296 296 296 297 297 298 299 300 300
269 269 270 271 272 274 275 276 278 279 280 281 283 284 284 286 287 287 288 289 289 289 290 290 291 292 293 293 294 295 295 295 296 296 296 296 297 297 298 299 299 300 301
270 271 272 273 274 276 277 278 279 280 281 282 283 284 285 287 287 288 288 288 288 288 289 290 290 291 292 293 294 294 295 295 295 296 296 297 297 298 298 299 300 301 302
272 272 273 275 276 277 279 280 281 281 282 283 283 284 286 287 287 287 287 287 288 288 289 290 291 291 292 293 293 294 294 295 295 295 296 297 297 298 299 300 301 302 303
273 274 274 275 277 278 280 281 282 282 283 283 284 284 285 285 286 287 287 287 287 288 289 290 291 292 293 293 294 295 295 295 295 295 296 297 297 298 299 300 301 302 303
275 275 276 277 278 279 280 281 282 283 283 283 283 284 284 285 286 286 286 287 287 288 289 290 290 291 292 293 294 295 295 295 295 296 297 297 298 299 300 301 301 302 302
275 276 277 278 279 280 281 281 282 282 283 283 283 284 285 285 285 286 286 287 287 288 289 290 290 291 292 293 293 294 295 295 295 295 296 298 299 299 300 300 301 302 303
Height
5890 5890 5891 5891 5891 5891 5891 5891 5891 5890 5889 5888 5887 5886 5885 5884 5882 5881 5879 5877 5876 5875 5873 5872 5870 5869 5868 5867 5867 5866 5865 5865 5864 5864 5863 5863 5862 5861 5861 5860 5859 5858 5857
5888 5888 5889 5889 5890 5890 5890 5890 5890 5889 5888 5887 5886 5885 5884 5883 5882 5880 5879 5877 5876 5874 5873 5871 5870 5868 5867 5866 5865 5863 5862 5862 5861 5861 5860 5859 5859 5858 5857 5856 5855 5854 5853
5885 5886 5887 5887 5888 5888 5888 5888 5888 5888 5887 5886 5885 5884 5883 5882 5881 5879 5878 5877 5875 5873 5872 5870 5868 5866 5865 5863 5862 5861 5859 5858 5858 5857 5856 5855 5854 5854 5853 5852 5851 5850 5849
5883 5884 5884 5885 5885 5886 5886 5886 5886 5886 5885 5884 5883 5883 5882 5880 5879 5878 5877 5875 5873 5872 5870 5868 5866 5864 5862 5860 5859 5858 5856 5855 5854 5853 5852 5851 5850 5848 5848 5847 5846 5844 5843
5880 5881 5881 5882 5883 5883 5883 5884 5883 5883 5882 5882 5881 5880 5879 5878 5877 5875 5874 5873 5871 5869 5867 5865 5863 5861 5859 5857 5855 5854 5852 5851 5850 5848 5847 5846 5844 5843 5842 5841 5840 5838 5837
5876 5877 5878 5879 5879 5880 5880 5880 5880 5880 5879 5879 5878 5877 5876 5875 5874 5872 5871 5869 5868 5866 5864 5862 5859 5857 5855 5853 5851 5850 5848 5846 5845 5843 5842 5840 5838 5837 5836 5834 5833 5832 5830
5872 5873 5874 5875 5875 5876 5876 5876 5876 5876 5876 5875 5874 5873 5872 5871 5870 5869 5867 5866 5864 5862 5860 5858 5855 5853 5851 5848 5846 5844 5842 5840 5839 5837 5835 5834 5832 5830 5829 5827 5825 5824 5822
5868 5869 5870 5870 5871 5871 5872 5872 5872 5872 5872 5871 5870 5869 5868 5867 5866 5864 5863 5861 5860 5858 5856 5853 5851 5848 5846 5843 5841 5838 5836 5834 5832 5830 5828 5826 5824 5823 5821 5819 5817 5815 5813
5863 5864 5865 5866 5866 5867 5867 5867 5867 5867 5867 5866 5865 5864 5863 5862 5861 5859 5858 5856 5855 5853 5850 5848 5845 5843 5840 5837 5835 5832 5830 5827 5824 5822 5820 5818 5815 5813 5811 5809 5807 5805 5803
5858 5859 5860 5860 5861 5861 5861 5861 5862 5861 5861 5861 5860 5859 5858 5857 5855 5854 5852 5851 5849 5847 5844 5842 5839 5836 5834 5831 5828 5825 5822 5819 5817 5814 5811 5808 5805 5803 5800 5798 5796 5793 5791
5852 5853 5854 5854 5855 5855 5855 5856 5856 5856 5855 5855 5854 5853 5852 5851 5849 5848 5846 5844 5842 5839 5837 5835 5832 5829 5826 5823 5820 5817 5813 5810 5807 5804 5801 5798 5795 5792 5789 5786 5783 5781 5778
5846 5847 5848 5848 5849 5849 5849 5849 5849 5849 5849 5848 5847 5846 5845 5844 5842 5840 5838 5836 5834 5832 5829 5826 5823 5820 5817 5814 5810 5807 5804 5801 5797 5794 5791 5788 5785 5781 5778 5774 5771 5767 5764
5840 5841 5841 5842 5842 5842 5842 5842 5842 5842 5842 5841 5840 5839 5837 5836 5834 5832 5830 5828 5825 5823 5820 5817 5814 5811 5807 5804 5800 5797 5793 5790 5787 5783 5780 5776 5773 5769 5766 5762 5758 5754 5750
5833 5834 5834 5835 5835 5835 5835 5835 5835 5834 5833 5833 5832 5830 5829 5828 5826 5824 5821 5819 5816 5814 5811 5808 5804 5801 5797 5793 5790 5786 5782 5778 5775 5771 5768 5764 5760 5756 5752 5748 5744 5740 5736
5826 5826 5827 5827 5827 5827 5827 5827 5826 5826 5825 5824 5823 5822 5820 5819 5816 5814 5811 5809 5806 5803 5800 5797 5793 5790 5786 5782 5778 5774 5770 5766 5762 5758 5754 5750 5746 5742 5738 5733 5729 5724 5720
5818 5818 5819 5819 5819 5818 5818 5818 5817 5817 5816 5815 5814 5812 5810 5808 5806 5804 5801 5798 5795 5792 5789 5785 5781 5777 5774 5770 5766 5762 5757 5753 5749 5744 5740 5736 5732 5727 5723 5718 5713 5708 5703
5810 5810 5810 5810 5810 5809 5809 5809 5808 5807 5806 5805 5803 5801 5800 5797 5795 5792 5790 5787 5783 5780 5776 5773 5769 5765 5761 5756 5752 5748 5744 5740 5735 5731 5726 5722 5717 5713 5708 5703 5698 5692 5687
5801 5801 5801 5801 5801 5800 5800 5799 5798 5797 5796 5794 5793 5790 5788 5786 5783 5780 5777 5774 5771 5767 5763 5759 5756 5751 5747 5743 5739 5734 5730 5726 5721 5716 5712 5707 5702 5697 5692 5687 5681 5675 5670
5792 5792 5792 5791 5791 5790 5789 5788 5787 5786 5785 5783 5781 5779 5776 5773 5770 5767 5764 5761 5757 5753 5749 5745 5741 5737 5733 5729 5725 5720 5716 5711 5706 5702 5697 5692 5687 5681 5676 5670 5665 5659 5652
5783 5782 5781 5781 5780 5779 5778 5777 5776 5774 5773 5770 5768 5766 5763 5760 5757 5754 5750 5746 5743 5739 5735 5731 5727 5723 5719 5714 5710 5706 5701 5696 5691 5686 5682 5676 5671 5665 5660 5654 5648 5641 5635
5772 5772 5771 5770 5769 5768 5767 5765 5764 5762 5760 5757 5755 5752 5748 5745 5743 5739 5736 5732 5728 5724 5720 5716 5712 5708 5704 5699 5695 5690 5686 5681 5676 5671 5666 5660 5655 5649 5643 5637 5630 5624 5617
5761 5761 5760 5759 5758 5756 5754 5753 5751 5748 5746 5743 5741 5737 5734 5730 5727 5724 5720 5716 5712 5708 5704 5701 5697 5692 5688 5684 5679 5675 5670 5665 5660 5654 5649 5644 5638 5632 5626 5620 5613 5606 5599
5749 5748 5747 5746 5745 5743 5741 5739 5736 5734 5731 5728 5725 5722 5718 5715 5711 5708 5704 5700 5696 5693 5689 5685 5681 5677 5672 5667 5663 5658 5653 5648 5643 5638 5632 5627 5621 5615 5609 5602 5595 5588 5581
5736 5735 5734 5733 5731 5729 5727 5725 5722 5719 5716 5713 5709 5706 5702 5699 5695 5692 5688 5684 5681 5677 5673 5669 5665 5660 5656 5651 5646 5641 5636 5631 5626 5620 5615 5609 5603 5597 5591 5585 5578 5571 5564
5723 5722 5720 5718 5716 5714 5712 5709 5707 5704 5700 5697 5693 5690 5686 5683 5679 5676 5672 5668 5665 5661 5657 5653 5648 5644 5639 5634 5630 5625 5620 5614 5608 5603 5597 5591 5586 5580 5574 5567 5561 5554 5548
5709 5707 5705 5703 5701 5698 5696 5693 5690 5687 5684 5681 5677 5674 5670 5667 5663 5660 5656 5652 5649 5645 5641 5636 5632 5627 5622 5617 5612 5607 5602 5597 5591 5585 5580 5574 5569 5563 5557 5551 5545 5538 5532